[[{"header":{"parameterUnit":"m.s-1","parameterCategory":1,"la1":30.2991,"la2":30.254,"lo1":-89.0895,"lo2":-89.0444,"dy":0.0017,"dx":0.0017,"nx":28,"ny":28,"refTime":"2025-04-05T03:00:00:Z","depth":0,"parameterNumber":2,"parameterNumberName":"U-component_of_WINDS"},"data":[0,0,0,0,0,0,0,0,0,0,0,0,0,0,0,0,0,0,0,0,0,0,0,0,0,0,0,0,0,0,0,0,0,0,0,0,0,0,0,0,0,0,0,0,0,0,0,0,0,0,0,0,0,0,0,0,0,0,-4.6907,-4.6908,0,-4.7005,-4.7007,-4.7008,-4.7021,-4.702,-4.7019,-4.7018,-4.7116,-4.712,-4.7123,0,0,0,0,0,0,0,0,0,0,0,0,0,-4.6728,-4.6731,-4.6907,-4.6908,-4.6909,-4.7005,-4.7007,-4.7008,-4.7021,-4.702,-4.7019,-4.7018,-4.7115,-4.7119,-4.7124,0,0,0,0,0,0,0,0,0,0,0,0,0,-4.6814,-4.6732,-4.6906,-4.6927,-4.693,-4.7005,-4.7007,-4.7008,-4.7021,-4.702,-4.7019,-4.7017,-4.7114,-4.7119,-4.7124,-4.7184,0,0,-4.714,-4.7142,0,0,0,0,0,0,0,0,-4.6809,-4.682,-4.6923,-4.6926,-4.693,-4.7,-4.6979,-4.7067,-4.7022,-4.6987,-4.7018,-4.7017,-4.7079,-4.7087,-4.7108,-4.7188,-4.7193,-4.7141,-4.7144,-4.7146,-4.7147,0,0,0,0,0,0,0,-4.6803,-4.6816,-4.6946,-4.6925,-4.6929,-4.6931,-4.6942,-4.6996,-4.7039,-4.699,-4.6991,-4.7003,-4.708,-4.7103,-4.711,-4.7194,-4.714,-4.7145,-4.7148,-4.715,-4.7328,-4.733,0,0,0,0,0,0,-4.6793,-4.6811,-4.6943,-4.6949,-4.6865,-4.6936,-4.6948,-4.6978,-4.7039,-4.7046,-4.7004,-4.7003,-4.7095,-4.7104,-4.7114,-4.7187,-4.7146,-4.7151,-4.7154,-4.7326,-4.7328,-4.733,0,0,0,0,0,0,-4.679,-4.6805,-4.6939,-4.688,-4.6898,-4.694,-4.6975,-4.6981,-4.7004,-4.7049,-4.7057,-4.7019,-4.7094,-4.7107,-4.7166,-4.719,-4.7153,-4.7158,-4.7325,-4.7327,-4.7329,-4.7333,0,0,0,0,0,0,-4.6784,-4.6804,-4.6827,-4.6881,-4.6901,-4.699,-4.6976,-4.6984,-4.7013,-4.7013,-4.7066,-4.7073,-4.7094,-4.7159,-4.7172,-4.7197,-4.7162,-4.7323,-4.7326,-4.7329,-4.7331,-4.7335,-4.7339,0,0,0,0,0,-4.6778,-4.6824,-4.6828,-4.6844,-4.6931,-4.6991,-4.7003,-4.7026,-4.7015,-4.7039,-4.7068,-4.7071,-4.7186,-4.7165,-4.7179,-4.7206,-4.7321,-4.7325,-4.7328,-4.7329,-4.7335,-4.7339,0,0,0,0,0,0,-4.677,-4.6831,-4.6837,-4.6901,-4.6941,-4.6993,-4.7024,-4.7031,-4.7074,-4.7072,-4.7099,-4.7111,-4.7169,-4.7194,-4.7169,-4.7267,-4.7253,-4.7259,-4.7248,-4.7254,-4.7258,-4.7249,-4.7166,0,0,0,0,0,-4.6777,-4.6821,-4.6872,-4.6924,-4.6944,-4.698,-4.7008,-4.7023,-4.7065,-4.7081,-4.7115,-4.7155,-4.72,-4.7229,-4.7273,-4.7336,-4.7347,-4.7362,-4.7366,-4.7369,-4.7374,-4.7408,-4.7415,-4.7342,-4.7342,-4.7342,0,0,-4.6789,-4.6828,-4.6854,-4.6923,-4.6956,-4.7001,-4.6994,-4.7042,-4.7075,-4.7088,-4.7146,-4.7173,-4.7219,-4.7281,-4.731,-4.7303,-4.7397,-4.7374,-4.7376,-4.7379,-4.7412,-4.7419,-4.7425,-4.7344,-4.7344,-4.7344,0,0,-4.6834,-4.6869,-4.6915,-4.6949,-4.6999,-4.7023,-4.7035,-4.7086,-4.7104,-4.7164,-4.7174,-4.7214,-4.7292,-4.7324,-4.735,-4.741,-4.7414,-4.7424,-4.7443,-4.7477,-4.7482,-4.7488,-4.7507,-4.7514,-4.7429,-4.7429,-4.7429,0,-4.6842,-4.6911,-4.6938,-4.6986,-4.7015,-4.7031,-4.7078,-4.7109,-4.717,-4.719,-4.7183,-4.7281,-4.7313,-4.7382,-4.7396,-4.7418,-4.7431,-4.7416,-4.748,-4.7485,-4.749,-4.7509,-4.7517,-4.7429,-4.7429,-4.7429,-4.7429,0,-4.6919,-4.6966,-4.6998,-4.7058,-4.7092,-4.7139,-4.7172,-4.7203,-4.7216,-4.7241,-4.7301,-4.7341,-4.7393,-4.7411,-4.7424,-4.7482,-4.7476,-4.7474,-4.746,-4.7497,-4.7515,-4.7523,-4.743,-4.743,-4.743,-4.743,0,0,-4.6959,-4.7035,-4.7046,-4.7073,-4.713,-4.7167,-4.7215,-4.7267,-4.7292,-4.7335,-4.7374,-4.744,-4.7439,-4.7469,-4.7486,-4.7516,-4.7558,-4.751,-4.7511,-4.7516,-4.7623,-4.7623,-4.7631,-4.7563,-4.7564,-4.7566,-4.7619,0,-4.7009,-4.7095,-4.7122,-4.7193,-4.7237,-4.7253,-4.7295,-4.7334,-4.7359,-4.74,-4.7427,-4.7473,-4.7469,-4.7487,-4.7517,-4.7546,-4.758,-4.7544,-4.7598,-4.76,-4.7584,-4.764,-4.764,-4.7688,-4.7626,-4.7627,-4.7628,0,-4.7078,-4.7123,-4.7199,-4.7251,-4.727,-4.7307,-4.7357,-4.7396,-4.7441,-4.7457,-4.7492,-4.7506,-4.7556,-4.7541,-4.7609,-4.7584,-4.7609,-4.7627,-4.7629,-4.7633,-4.7614,-4.7643,-4.7704,-4.771,-4.764,-4.7639,-4.7638,0,-4.7098,-4.7177,-4.7233,-4.7256,-4.7318,-4.7344,-4.7371,-4.7414,-4.7444,-4.7488,-4.7507,-4.7556,-4.7582,-4.7619,-4.7646,-4.7633,-4.7712,-4.7699,-4.7725,-4.7724,-4.7739,-4.7737,-4.7801,-4.7759,-4.7759,-4.7758,-4.7758,0,-4.7149,-4.7195,-4.7242,-4.7276,-4.7328,-4.7358,-4.7408,-4.7435,-4.7474,-4.7513,-4.7532,-4.7568,-4.7603,-4.7643,-4.7665,-4.7718,-4.773,-4.7743,-4.7748,-4.774,-4.7738,-4.7755,-4.7751,-4.776,-4.776,-4.776,-4.7759,0,-4.7178,-4.7212,-4.7274,-4.7328,-4.7343,-4.7378,-4.7425,-4.7458,-4.7485,-4.7534,-4.7547,-4.7589,-4.7638,-4.767,-4.7732,-4.7747,-4.7803,-4.7808,-4.7788,-4.779,-4.7813,-4.781,-4.7889,-4.79,-4.7852,-4.7852,-4.7852,0,-4.7208,-4.7243,-4.7302,-4.733,-4.7357,-4.7402,-4.7433,-4.7465,-4.7496,-4.755,-4.7576,-4.7627,-4.7669,-4.7746,-4.7781,-4.7829,-4.7834,-4.7858,-4.7841,-4.7832,-4.7832,-4.7828,-4.7831,-4.786,-4.786,-4.7861,-4.7861,0,-4.7256,-4.7271,-4.7315,-4.7365,-4.7401,-4.7442,-4.7483,-4.7504,-4.7543,-4.7577,-4.7628,-4.766,-4.7725,-4.7774,-4.7825,-4.7852,-4.7862,-4.7867,-4.7875,-4.7866,-4.7852,-4.7858,-4.7793,-4.7864,-4.7864,-4.7863,-4.7863,-4.7863,-4.7285,-4.7317,-4.7363,-4.7411,-4.7446,-4.7484,-4.7517,-4.7549,-4.7592,-4.7647,-4.7664,-4.7716,-4.776,-4.783,-4.7859,-4.79,-4.7897,-4.7909,-4.7912,-4.7914,-4.7913,-4.7848,-4.791,-4.791,-4.791,-4.791,-4.791,0,-4.7332,-4.7363,-4.7407,-4.7464,-4.7502,-4.7511,-4.7556,-4.7587,-4.7633,-4.7674,-4.7716,-4.7774,-4.7822,-4.7862,-4.7912,-4.7937,-4.7943,-4.7949,-4.7946,-4.7952,-4.7914,-4.7901,-4.7943,-4.7943,-4.7943,-4.7943,-4.7943,-4.7943,-4.7361,-4.7415,-4.7436,-4.7507,-4.7538,-4.759,-4.7616,-4.765,-4.7683,-4.7748,-4.7788,-4.7814,-4.7855,-4.7908,-4.7952,-4.7963,-4.7979,-4.7984,-4.7995,-4.7958,-4.7954,-4.7951,-4.7938,-4.7988,-4.7988,-4.8029,-4.8029,-4.803]},{"header":{"parameterUnit":"m.s-1","parameterCategory":1,"la1":30.2991,"la2":30.254,"lo1":-89.0895,"lo2":-89.0444,"dy":0.0017,"dx":0.0017,"nx":28,"ny":28,"refTime":"2025-04-05T03:00:00:Z","depth":0,"parameterNumber":3,"parameterNumberName":"V-component_of_WINDS"},"data":[0,0,0,0,0,0,0,0,0,0,0,0,0,0,0,0,0,0,0,0,0,0,0,0,0,0,0,0,0,0,0,0,0,0,0,0,0,0,0,0,0,0,0,0,0,0,0,0,0,0,0,0,0,0,0,0,0,0,5.1833,5.1834,0,5.1925,5.1926,5.1927,5.1927,5.1925,5.1924,5.1923,5.2014,5.2018,5.2021,0,0,0,0,0,0,0,0,0,0,0,0,0,5.1655,5.1658,5.1833,5.1834,5.1835,5.1925,5.1926,5.1927,5.1927,5.1925,5.1924,5.1923,5.2013,5.2017,5.2021,0,0,0,0,0,0,0,0,0,0,0,0,0,5.1738,5.166,5.1833,5.1846,5.1848,5.1925,5.1926,5.1928,5.1927,5.1925,5.1924,5.1922,5.2012,5.2017,5.2022,5.2091,0,0,5.2038,5.204,0,0,0,0,0,0,0,0,5.1734,5.1745,5.1843,5.1845,5.1848,5.1913,5.1897,5.1982,5.1928,5.1897,5.1923,5.1921,5.1982,5.1989,5.201,5.2095,5.2099,5.2039,5.2042,5.2044,5.2046,0,0,0,0,0,0,0,5.1728,5.1741,5.1869,5.1844,5.1847,5.1847,5.1857,5.1913,5.1948,5.19,5.19,5.1911,5.1982,5.2005,5.2012,5.21,5.2038,5.2043,5.2046,5.2049,5.2249,5.2251,0,0,0,0,0,0,5.172,5.1736,5.1866,5.1872,5.1785,5.1851,5.1862,5.1894,5.1948,5.1954,5.1912,5.191,5.1997,5.2006,5.2016,5.2102,5.2044,5.2049,5.2052,5.2247,5.2249,5.2252,0,0,0,0,0,0,5.1716,5.1731,5.1863,5.1804,5.1821,5.1856,5.1891,5.1896,5.1919,5.1957,5.1963,5.1929,5.1996,5.2008,5.2073,5.2105,5.2051,5.2056,5.2244,5.2248,5.225,5.2274,0,0,0,0,0,0,5.1711,5.173,5.1757,5.1805,5.1824,5.1919,5.1893,5.1899,5.1929,5.1927,5.1975,5.1981,5.1996,5.2065,5.2078,5.2112,5.206,5.2241,5.2246,5.2249,5.2271,5.2278,5.2284,0,0,0,0,0,5.1704,5.1758,5.1758,5.1774,5.1858,5.1921,5.1932,5.1949,5.1931,5.1959,5.1983,5.1979,5.2099,5.2072,5.2087,5.2122,5.224,5.2244,5.2249,5.2268,5.2276,5.2284,0,0,0,0,0,0,5.1711,5.1765,5.1765,5.1836,5.1874,5.1921,5.1955,5.1957,5.1999,5.1996,5.2014,5.2025,5.209,5.2112,5.208,5.2193,5.2167,5.2175,5.2176,5.2185,5.2191,5.2185,5.2065,0,0,0,0,0,5.1721,5.1768,5.1812,5.187,5.189,5.1919,5.1947,5.1957,5.1997,5.2012,5.2042,5.208,5.2126,5.2156,5.2201,5.2273,5.2285,5.2305,5.2312,5.2317,5.2324,5.2367,5.2377,5.2267,5.2267,5.2267,0,0,5.1741,5.1777,5.1805,5.1873,5.1903,5.1952,5.1933,5.1984,5.202,5.202,5.2084,5.2107,5.215,5.222,5.2252,5.2241,5.2357,5.2323,5.2327,5.2331,5.2373,5.2383,5.2392,5.2271,5.227,5.227,0,0,5.1804,5.1835,5.1889,5.192,5.1968,5.1988,5.2001,5.2048,5.2064,5.2128,5.213,5.2173,5.2252,5.2284,5.231,5.2388,5.2387,5.2402,5.2437,5.2478,5.2487,5.2494,5.2524,5.2535,5.2408,5.2409,5.2409,0,5.1824,5.1898,5.1915,5.1969,5.1999,5.2003,5.2058,5.2087,5.2146,5.2167,5.2153,5.2255,5.2284,5.2362,5.2382,5.2402,5.2418,5.2397,5.2484,5.2492,5.25,5.2528,5.2539,5.241,5.241,5.241,5.241,0,5.192,5.1972,5.2009,5.2069,5.2103,5.2156,5.2183,5.2215,5.2223,5.2244,5.2311,5.2347,5.24,5.2419,5.2425,5.2499,5.2491,5.248,5.2455,5.2512,5.2539,5.255,5.2413,5.2412,5.2412,5.2411,0,0,5.199,5.206,5.2074,5.2102,5.2156,5.2196,5.2249,5.2303,5.2332,5.2373,5.2419,5.2487,5.2479,5.2509,5.2519,5.2555,5.2618,5.2541,5.2542,5.2556,5.2704,5.2713,5.2726,5.2617,5.2619,5.2621,5.2701,0,5.206,5.2158,5.2176,5.2261,5.231,5.2315,5.2362,5.24,5.2422,5.2466,5.2489,5.2538,5.2522,5.2541,5.2577,5.2603,5.2648,5.2597,5.2661,5.2663,5.2652,5.274,5.2749,5.2823,5.2712,5.2714,5.2715,0,5.2155,5.2201,5.2291,5.2341,5.2362,5.2405,5.2457,5.2499,5.2542,5.2556,5.2591,5.2598,5.2654,5.2626,5.2705,5.267,5.2697,5.2714,5.2718,5.2726,5.2694,5.2752,5.2847,5.2859,5.2732,5.273,5.2729,0,5.22,5.2284,5.235,5.2373,5.2432,5.2462,5.2488,5.253,5.2562,5.2607,5.2628,5.2679,5.2707,5.2746,5.2766,5.2743,5.2845,5.2817,5.2858,5.2858,5.288,5.2879,5.2984,5.2895,5.2895,5.2894,5.2894,0,5.2278,5.2333,5.2371,5.2412,5.2474,5.2495,5.2557,5.2582,5.262,5.2665,5.2671,5.2714,5.2738,5.2784,5.28,5.2865,5.2876,5.2889,5.2893,5.289,5.2889,5.2909,5.2906,5.2897,5.2897,5.2896,5.2896,0,5.2339,5.2366,5.2438,5.2489,5.2503,5.2548,5.2591,5.2631,5.2653,5.2711,5.2725,5.276,5.2815,5.2839,5.2906,5.2917,5.2991,5.299,5.2977,5.2979,5.302,5.3016,5.3143,5.3161,5.3058,5.3059,5.306,0,5.2388,5.2431,5.2487,5.2519,5.2547,5.2597,5.2631,5.2653,5.2688,5.2742,5.2776,5.2831,5.2877,5.2965,5.2995,5.3047,5.3049,5.309,5.3057,5.3053,5.3052,5.3051,5.3056,5.3096,5.3097,5.3098,5.3098,0,5.2472,5.2484,5.2533,5.2588,5.2628,5.2671,5.2714,5.2739,5.2768,5.2807,5.2864,5.29,5.297,5.3025,5.308,5.3105,5.3108,5.3109,5.3121,5.3119,5.3111,5.3119,5.2996,5.3106,5.3105,5.3104,5.3104,5.3104,5.2531,5.2571,5.2618,5.2672,5.2707,5.2747,5.2788,5.2816,5.2865,5.2925,5.2934,5.2996,5.304,5.3114,5.3142,5.319,5.3181,5.3198,5.3203,5.3208,5.3212,5.3102,5.32,5.32,5.32,5.3199,5.3199,0,5.2618,5.2649,5.2699,5.276,5.2803,5.2802,5.285,5.2886,5.2941,5.2982,5.3028,5.3095,5.3149,5.3185,5.324,5.3273,5.3275,5.3286,5.3285,5.3292,5.3216,5.3201,5.3284,5.3284,5.3284,5.3284,5.3284,5.3284,5.2669,5.2738,5.2755,5.2842,5.2872,5.2934,5.2961,5.2999,5.3032,5.3107,5.3154,5.3177,5.3217,5.3275,5.3325,5.3334,5.3355,5.3368,5.3377,5.3305,5.3297,5.3288,5.3274,5.3372,5.3372,5.3449,5.345,5.345]}]]